Dewpoint
61 60 60 60 60 60 60 61 60 60 60 60 60 61 60 60 60 60 60 59 59 58 58 60 60 60 58 59 58 57 56 34 15 19 20 33 45 51 54 54 55 57 58 48 43 38 13 9 5 8 6 14 35 31 35 28 22 39 33 29 25 18 17 13 6 6 12 9 15 15 14 11 12 15 15 13 13 12 10 12 13 13 14 14 10 9 11 13
60 59 60 60 60 60 59 60 60 60 59 60 60 60 60 60 60 60 60 60 60 60 59 59 59 58 59 57 58 58 48 28 9 20 28 46 53 55 54 54 56 57 56 40 14 10 7 4 2 6 5 19 34 26 21 23 10 32 23 24 24 16 17 7 3 4 4 8 12 12 14 11 9 14 12 7 6 10 11 9 8 11 12 13 9 9 10 11
59 60 58 59 60 60 60 59 60 60 59 59 60 61 60 59 59 59 60 59 59 61 60 60 60 57 56 57 56 57 35 18 7 12 15 52 57 57 57 55 54 56 48 32 25 12 10 9 4 1 2 15 9 21 17 20 14 26 24 23 21 15 4 4 3 5 8 7 8 11 11 12 10 14 10 8 5 7 10 12 11 9 10 11 13 8 8 9
59 59 60 60 60 60 60 60 60 60 60 59 60 60 59 59 59 59 59 60 61 62 60 59 59 58 58 57 54 55 30 32 9 12 16 51 51 58 56 56 54 51 46 37 21 14 16 11 9 1 9 10 23 6 27 19 28 24 22 21 19 3 4 5 5 6 7 6 6 8 12 12 9 11 8 7 8 8 6 6 12 12 9 10 11 10 9 9
58 59 60 59 59 60 59 59 59 59 60 61 59 59 59 58 58 58 59 59 61 61 61 61 60 59 58 56 56 45 36 20 17 14 20 50 51 52 59 54 53 48 39 31 25 18 13 9 4 6 22 26 29 24 14 7 9 28 17 6 2 3 4 6 5 8 7 7 6 9 7 8 12 15 11 7 8 7 17 15 21 18 10 10 10 10 10 9
58 60 59 59 60 60 60 60 59 59 60 61 60 59 59 58 58 58 58 58 58 58 59 59 60 58 59 54 55 47 35 19 33 14 46 48 50 51 54 52 53 52 45 32 15 11 9 4 2 11 23 19 10 13 10 3 8 25 14 3 3 3 4 9 8 10 11 9 10 20 11 11 12 8 8 8 9 8 11 22 25 26 22 18 13 11 10 10
58 59 59 58 59 59 59 59 59 59 60 60 60 60 59 58 58 59 59 58 58 57 58 58 57 57 58 57 50 34 14 13 13 17 46 48 49 49 50 50 50 53 40 13 11 10 8 6 5 28 16 23 16 9 8 10 16 24 11 4 3 6 6 9 9 15 8 9 8 11 22 9 11 10 8 8 8 12 16 13 26 28 30 26 16 11 13 12
58 59 59 58 57 58 58 58 59 59 59 60 61 61 60 59 58 58 58 59 58 57 58 58 57 56 53 50 47 25 11 11 13 20 42 47 29 26 37 41 35 31 13 15 12 9 11 9 5 14 21 21 34 18 30 13 18 28 21 14 3 12 6 7 8 8 10 9 8 10 6 5 6 5 10 8 8 11 10 10 15 21 21 19 14 15 17 17
58 58 58 58 57 57 57 57 58 58 58 59 60 60 60 59 58 58 57 58 58 57 58 59 57 56 56 44 29 17 9 13 16 17 19 18 15 17 19 15 19 15 13 13 12 10 12 13 8 9 27 28 10 32 30 27 29 29 19 5 3 6 6 8 8 8 8 7 9 7 7 7 6 9 7 7 8 9 9 8 8 9 12 13 12 15 11 12
58 57 57 58 57 58 57 57 58 58 59 59 59 60 60 59 58 58 58 58 58 57 57 57 57 57 48 34 42 15 13 15 16 17 19 19 14 16 15 15 15 16 15 13 15 14 11 9 11 12 20 11 20 31 31 30 28 29 26 19 4 5 6 8 6 7 9 7 8 7 6 6 10 10 8 16 13 11 11 12 9 10 9 10 11 14 13 11
58 57 57 58 58 58 58 58 57 58 59 60 60 60 60 57 57 58 59 59 57 56 57 56 57 46 29 15 13 11 19 14 22 16 18 20 14 15 14 14 14 15 15 14 16 15 17 17 16 14 42 31 20 26 27 33 25 11 12 24 19 5 5 7 5 9 7 8 11 8 7 7 7 12 8 9 13 11 9 8 9 8 9 9 10 9 11 10
58 56 56 57 58 58 58 58 58 58 57 58 59 58 57 57 56 58 58 58 56 54 57 56 56 30 24 13 13 12 19 18 33 16 18 21 15 16 16 15 14 13 13 13 14 16 20 28 28 41 34 31 30 20 30 23 17 21 23 23 20 6 4 6 5 5 14 8 10 8 7 9 9 10 10 10 10 10 8 7 7 9 8 9 9 8 12 11
57 56 56 56 58 58 59 58 58 58 58 58 58 57 56 56 57 57 58 56 57 54 54 54 53 34 34 31 14 13 26 31 33 18 18 22 21 19 14 20 14 14 15 15 18 23 39 32 24 30 40 36 36 31 32 19 17 29 12 21 22 19 15 6 12 9 7 8 11 9 15 12 8 8 9 10 9 8 8 7 6 7 7 9 10 11 10 13
56 56 56 56 56 58 57 58 58 58 57 57 58 57 56 55 56 56 56 56 55 54 55 55 42 35 44 22 12 16 21 28 20 17 19 21 19 16 15 21 19 17 25 14 23 27 26 23 25 31 41 30 34 34 16 12 30 22 32 27 24 19 16 7 8 7 7 12 11 13 12 11 13 9 11 10 9 7 6 6 6 10 9 8 14 10 11 13
56 56 56 55 57 58 58 58 58 58 58 57 57 57 56 54 54 55 56 56 58 57 53 53 44 39 36 32 13 27 49 25 16 17 21 21 19 17 17 19 14 17 18 17 18 22 19 36 29 36 30 36 34 34 32 27 17 22 25 23 24 17 20 10 16 9 9 8 10 20 17 16 10 10 9 10 10 7 7 8 9 9 10 10 9 8 8 9
56 56 56 56 55 55 56 57 57 57 56 57 56 56 56 54 53 53 55 53 52 52 47 49 49 16 31 11 14 44 26 13 13 17 28 22 19 18 17 16 17 15 13 13 16 18 19 13 32 35 23 21 31 28 27 23 27 25 22 18 15 15 18 20 13 13 18 14 9 16 16 12 11 8 8 9 8 7 7 8 11 11 12 10 9 11 8 16
57 56 56 56 54 55 56 56 56 56 56 56 56 56 56 55 53 54 55 55 43 48 33 36 29 36 30 10 15 13 11 14 20 16 19 28 20 19 18 15 15 14 13 13 12 22 18 13 31 32 37 22 21 27 26 21 18 20 21 16 20 11 16 14 14 13 21 15 19 14 17 13 11 11 11 11 9 9 8 8 9 12 11 12 13 10 9 10
56 56 56 55 54 55 55 55 55 56 55 55 54 53 46 52 54 51 53 51 49 53 53 38 38 45 32 11 8 12 14 14 15 17 17 20 25 20 18 16 15 13 13 13 12 10 12 18 21 24 23 28 23 31 18 16 22 18 17 18 17 17 15 14 21 23 14 26 22 18 16 15 14 15 14 13 13 9 9 9 9 10 10 11 11 11 10 12
56 56 55 55 55 55 55 55 55 56 54 54 55 55 55 56 53 45 40 31 48 43 37 39 37 37 37 16 13 14 15 16 16 16 17 20 21 20 19 17 16 14 22 16 23 11 25 30 35 28 25 23 22 27 17 22 23 24 25 20 20 17 13 14 22 25 26 18 20 15 15 13 13 12 12 12 11 12 9 10 11 9 9 9 12 13 13 17
56 56 55 55 54 54 54 55 55 55 54 52 55 59 55 49 43 43 46 35 30 31 32 37 29 36 12 14 14 15 16 14 11 17 18 22 21 17 15 16 22 18 31 27 37 24 37 29 24 22 25 26 15 18 20 10 21 23 25 22 21 20 19 17 27 26 26 22 18 17 17 13 13 13 12 11 10 9 9 9 13 15 10 12 12 18 17 16
56 56 55 54 54 54 55 55 55 55 54 54 54 46 36 40 37 40 36 33 41 33 33 37 36 14 13 16 16 16 9 9 13 17 19 22 22 20 17 15 25 24 27 36 31 40 37 26 26 26 19 7 8 17 22 24 22 26 24 22 18 23 16 19 22 20 27 22 17 16 15 14 13 12 12 11 10 8 8 10 11 11 13 14 17 19 19 18
55 55 55 54 54 55 56 55 55 55 55 50 50 41 46 42 45 50 45 37 43 43 33 21 19 16 17 17 18 18 16 9 11 16 19 24 19 14 31 15 20 21 31 35 33 33 32 27 26 16 11 13 14 25 26 25 28 26 18 16 16 16 21 26 22 22 25 24 17 15 14 13 14 13 13 10 9 11 11 11 10 9 11 13 16 19 21 18
56 55 55 55 56 56 56 56 55 54 56 51 49 44 40 44 43 47 45 37 39 42 41 39 30 19 16 20 19 22 16 10 19 17 19 23 22 23 31 19 26 24 23 24 28 25 21 29 10 12 19 22 24 25 25 27 27 18 18 17 18 22 18 15 27 25 24 18 17 16 16 15 15 14 12 10 9 14 20 25 26 27 12 13 13 17 18 18
55 56 56 56 56 55 57 55 54 57 51 52 45 43 45 46 46 47 47 42 40 41 42 39 25 22 16 15 23 20 16 17 16 12 21 21 18 34 29 27 24 23 29 31 27 28 20 20 15 25 24 19 26 23 25 21 19 24 21 19 16 19 19 17 15 19 23 23 25 19 17 16 15 11 7 10 11 10 19 14 19 20 26 24 26 25 19 18
56 55 55 55 54 56 55 53 47 50 47 56 47 46 46 47 48 50 41 40 34 40 29 44 36 17 17 25 24 21 16 21 23 18 22 20 20 26 36 34 32 26 33 34 31 29 27 14 17 26 26 20 23 23 23 23 15 16 22 25 20 21 20 21 20 19 14 13 21 23 9 11 14 9 6 9 9 10 13 15 16 17 22 21 18 17 20 22
55 55 55 55 55 54 55 44 52 52 51 50 47 48 47 48 52 48 46 31 22 39 40 34 21 23 19 26 19 33 28 32 18 18 32 20 27 28 36 30 29 30 35 32 30 27 28 19 21 28 24 25 24 22 25 22 16 13 18 24 19 16 20 21 20 19 14 12 20 22 8 10 11 10 7 10 9 10 15 16 13 15 16 21 17 16 17 17
54 55 55 55 55 54 50 47 52 55 50 53 49 49 52 49 53 52 38 25 24 34 36 39 30 37 41 24 28 39 26 36 18 24 20 23 32 41 35 25 33 35 35 36 21 21 25 19 21 25 21 26 24 19 25 19 15 15 20 23 19 20 20 21 22 19 14 19 20 22 13 9 10 8 12 12 10 12 13 17 15 13 13 16 16 19 19 20
54 55 55 55 54 53 47 46 54 52 43 50 50 47 49 51 52 51 34 12 6 37 38 36 40 36 26 39 23 18 38 37 27 20 18 31 32 41 28 30 30 33 31 26 12 33 30 27 24 25 23 21 18 25 22 22 15 21 23 24 19 21 22 23 19 14 15 13 13 17 22 8 11 11 11 12 9 11 12 15 17 17 17 17 18 20 19 21
52 54 54 54 54 53 52 50 53 53 47 49 49 47 52 53 46 39 22 11 29 32 44 34 38 32 34 34 30 34 33 35 27 36 31 34 22 38 29 37 34 30 33 30 17 24 35 29 29 26 23 16 24 15 22 24 18 26 26 26 24 24 23 23 16 13 11 10 11 14 17 8 8 10 7 9 9 13 16 16 17 18 18 18 21 20 21 22
51 52 53 54 53 56 55 54 46 50 50 51 52 51 50 46 45 31 15 6 36 28 38 41 35 35 39 32 37 30 25 33 30 36 28 31 22 30 34 37 37 32 28 35 28 32 30 32 35 28 26 16 15 16 25 26 26 25 27 24 23 22 19 17 15 12 12 11 13 17 15 11 8 10 11 12 17 15 16 15 16 19 19 20 21 20 22 21
51 50 52 52 52 51 51 45 48 50 51 52 52 51 47 47 29 15 5 23 36 39 40 38 38 39 34 27 19 36 33 35 34 33 32 34 35 32 35 34 30 26 25 25 27 33 31 29 26 29 29 28 20 24 28 26 26 23 18 17 14 15 11 10 10 10 10 13 9 7 14 18 7 5 15 17 18 20 19 15 16 17 18 21 21 22 22 21
52 51 51 49 51 56 43 46 49 53 53 53 51 49 43 26 23 13 16 42 30 27 32 28 36 32 32 33 29 31 25 29 33 33 21 24 22 25 27 15 25 16 15 14 16 29 26 27 27 30 28 25 26 23 24 24 24 20 16 15 13 11 12 10 9 11 13 13 5 6 17 10 6 7 16 16 15 17 19 22 19 18 18 19 20 22 23 22
52 51 52 49 50 47 49 51 51 52 53 52 50 48 35 16 9 22 17 24 19 29 30 32 31 33 31 30 28 30 30 27 34 33 29 30 26 29 30 31 28 25 12 16 13 14 16 26 26 28 27 27 25 16 15 16 19 18 14 12 11 12 7 4 6 8 10 12 8 8 13 6 7 8 13 12 14 17 18 18 20 19 18 18 20 21 22 23
53 52 51 47 50 48 49 49 51 51 51 54 45 40 24 12 10 26 19 22 27 34 36 34 30 29 30 23 30 29 16 32 26 27 30 24 27 21 24 28 29 26 19 12 10 9 12 11 24 27 22 26 22 15 17 15 15 10 18 11 13 12 6 5 7 7 8 12 11 14 7 11 7 13 14 13 16 18 18 17 19 20 20 20 19 19 20 20
53 53 52 52 53 53 55 51 54 51 51 50 41 26 18 13 14 16 17 21 28 30 30 31 27 28 27 22 28 28 23 20 28 25 28 25 13 17 20 20 28 24 23 18 16 13 18 17 26 26 24 23 25 26 24 22 15 15 16 17 12 14 12 13 11 11 9 11 10 9 11 10 10 14 15 16 16 16 16 17 18 17 18 19 19 20 20 21
52 55 55 50 51 53 54 54 52 52 51 43 33 19 17 13 12 21 27 30 31 26 24 29 29 24 21 20 24 24 34 20 23 23 21 18 22 18 24 25 22 24 19 18 16 16 16 6 23 27 27 12 14 22 24 22 15 10 12 13 13 12 8 12 12 12 13 10 10 12 9 9 12 12 14 16 15 15 16 16 16 16 16 17 19 20 20 20
53 54 52 52 52 52 52 55 52 51 50 42 27 20 19 24 29 30 35 31 31 27 29 16 19 16 13 16 16 17 21 27 23 16 6 23 18 24 25 26 28 24 18 13 18 18 13 11 25 25 23 20 21 17 25 24 21 13 11 8 19 18 16 12 9 10 9 8 6 8 9 9 8 11 14 13 13 13 14 13 14 15 16 17 19 19 20 19
48 49 46 51 50 50 53 54 52 53 46 38 23 24 30 25 34 34 34 34 32 30 23 21 18 22 19 11 13 15 22 13 20 19 17 18 14 25 24 24 24 19 21 25 18 18 17 13 17 17 21 24 25 24 22 23 23 16 12 21 13 11 10 9 9 6 6 6 8 7 8 11 11 12 11 10 11 11 12 13 14 15 15 16 18 19 19 18
50 47 40 48 51 51 53 51 53 48 41 26 24 23 33 34 32 34 35 33 34 31 22 24 19 21 18 17 21 20 19 16 19 18 16 16 11 27 23 25 26 24 20 27 19 17 20 13 14 20 16 21 18 19 16 14 21 24 19 15 18 8 13 8 12 11 10 9 5 5 11 10 14 11 9 9 11 13 14 14 15 16 16 17 18 19 18 17
45 45 47 50 52 53 51 54 49 45 38 25 28 28 32 33 35 34 33 35 30 29 22 23 26 20 21 22 21 19 22 21 15 15 16 20 14 28 25 22 23 24 27 24 20 24 17 12 13 14 21 18 12 11 10 13 16 9 11 12 14 12 12 11 12 9 9 6 7 8 8 11 8 10 10 13 13 15 15 15 16 17 17 17 18 18 17 16
46 41 43 51 49 51 56 53 43 30 28 26 33 33 34 37 35 36 37 36 35 34 27 29 27 21 26 23 20 23 20 15 17 17 16 18 13 17 26 26 29 24 23 23 20 16 17 12 14 11 9 8 12 17 16 13 13 11 12 16 15 14 13 10 10 14 12 11 8 8 7 11 13 10 12 12 13 15 17 17 17 18 17 17 18 17 16 15
41 31 43 48 48 54 51 38 28 30 26 26 30 36 39 38 35 34 33 33 34 28 30 28 29 27 25 25 26 22 21 20 20 20 17 14 25 23 29 33 32 28 15 18 15 22 16 13 9 12 9 10 12 11 16 19 20 19 12 11 12 13 13 10 7 10 11 11 10 10 9 10 11 10 13 13 14 17 18 18 17 16 16 17 17 17 15 15
40 39 45 47 50 54 45 34 31 31 28 32 35 34 35 35 31 33 33 33 32 33 30 30 31 28 28 25 27 22 23 19 23 17 23 21 25 23 31 33 31 30 23 19 23 15 22 13 14 14 14 19 14 17 11 16 18 16 14 12 12 11 16 14 13 13 11 10 9 9 8 10 9 14 15 15 18 19 18 17 16 15 16 17 16 16 15 16
42 42 46 55 55 50 43 27 27 27 26 35 35 35 37 35 34 31 30 30 31 28 29 28 30 30 28 29 22 21 26 17 24 20 17 19 16 33 33 32 30 17 21 20 19 23 14 14 12 13 12 12 7 9 11 15 17 9 10 10 17 18 17 14 12 12 8 9 10 8 6 11 12 16 15 17 18 18 17 16 16 15 15 16 16 15 15 17
40 43 41 42 40 40 40 37 34 27 26 29 27 28 31 33 36 33 33 32 30 27 29 26 29 28 27 28 26 25 26 21 18 23 15 12 16 31 32 31 29 19 30 29 30 25 19 17 11 10 8 6 6 8 14 15 15 12 14 16 12 15 14 10 10 12 9 10 9 10 10 10 13 15 17 19 18 17 17 15 15 15 15 16 16 15 15 17
36 24 38 41 40 40 36 33 35 30 26 25 24 30 28 27 34 33 35 33 30 31 24 28 28 24 25 27 27 26 26 27 21 18 17 18 19 30 30 31 29 28 29 32 30 23 18 18 13 13 14 12 13 16 18 19 13 12 13 13 13 14 16 14 13 12 11 12 11 13 15 13 13 14 18 18 16 15 14 14 14 14 15 16 15 14 15 16
35 29 28 29 39 34 28 34 35 32 29 28 22 26 22 26 31 32 37 30 31 31 30 29 29 27 25 26 25 23 24 25 25 22 18 16 18 24 30 31 30 30 27 27 27 17 16 16 17 18 16 15 15 16 16 17 11 11 13 14 17 15 13 11 12 12 14 13 11 13 13 15 14 14 17 16 15 14 14 13 14 15 15 15 14 14 18 17
34 34 37 30 34 26 29 30 35 35 33 33 25 28 26 26 26 23 32 29 29 27 27 29 27 28 28 28 26 20 22 23 22 22 22 13 19 19 21 29 27 29 26 22 19 16 17 16 20 14 15 15 15 13 12 14 13 12 13 11 11 17 15 9 11 15 13 12 12 13 13 14 15 16 16 16 15 13 13 14 15 15 15 14 13 12 17 16
38 33 33 35 35 30 32 34 36 37 35 30 23 29 26 28 26 26 27 26 29 27 28 21 27 27 26 26 23 21 24 18 19 23 18 17 19 17 19 24 25 27 23 16 13 16 15 17 20 16 14 14 14 14 15 15 14 11 12 15 14 17 15 14 15 15 14 13 14 14 15 15 15 16 16 15 14 13 14 15 15 14 13 13 12 17 16 14
37 38 26 35 35 28 27 28 31 35 30 30 23 31 27 26 27 27 28 24 22 28 27 26 28 27 27 26 26 22 24 27 26 22 17 18 22 20 21 17 18 21 17 14 16 15 17 14 16 15 12 14 16 14 11 14 10 10 12 16 15 13 12 14 13 14 16 15 16 15 15 15 17 16 15 13 12 13 15 15 14 13 12 12 17 15 13 11
41 39 46 38 32 27 27 29 31 30 25 27 24 31 29 29 28 29 29 31 27 27 28 29 29 27 28 28 27 26 30 29 29 28 28 26 22 23 19 19 19 20 18 19 16 16 12 16 14 14 14 14 13 14 15 15 14 11 10 11 14 12 12 13 14 14 15 15 15 14 13 15 16 15 13 12 12 14 14 15 14 11 11 17 14 12 10 10
42 39 43 41 28 23 22 26 28 31 26 26 28 30 26 30 30 30 24 33 31 32 33 30 29 28 27 28 27 31 29 29 29 28 26 25 24 23 23 22 22 20 21 20 19 19 15 16 15 16 14 12 13 16 15 15 12 9 14 16 16 14 16 16 16 16 15 14 14 13 14 15 14 14 11 12 12 15 15 15 12 11 13 12 10 9 10 14